SCP
0 0 0 1 1 1 1 1 1 1 1 2 1 1 1 1 1 1 1 1 1 1 1 1 1 1 1 1 1 1 1 2 2 2 2 1 1 1 1 1 1 1 1
0 0 0 1 1 1 1 1 1 1 1 1 1 1 1 1 1 1 1 1 1 1 1 1 1 1 1 1 1 1 1 2 3 2 2 1 1 1 1 1 1 1 0
0 0 0 1 1 1 1 1 1 1 1 1 1 1 1 1 1 1 1 1 1 1 1 1 1 1 1 1 1 1 2 3 3 2 2 1 1 1 1 1 0 0 0
1 1 1 1 1 1 1 1 1 1 1 1 1 1 1 1 1 1 1 1 1 1 1 1 1 1 1 1 1 1 2 3 3 2 1 1 1 1 1 1 0 0 0
1 1 1 1 1 1 1 1 1 1 1 1 1 1 1 1 1 1 1 1 1 1 2 2 1 1 1 1 1 2 2 3 2 1 1 1 1 1 1 1 0 0 0
1 1 1 1 1 1 1 1 1 1 1 1 1 0 0 1 1 1 0 0 0 1 1 1 1 1 1 1 1 2 2 2 2 1 1 1 1 1 1 1 1 1 0
1 2 2 1 1 1 1 1 1 1 1 1 0 0 0 0 0 0 0 0 0 0 1 1 1 1 1 2 2 2 2 2 1 1 1 1 1 1 1 1 1 1 1
1 2 2 1 1 2 2 1 1 1 1 1 1 0 0 0 0 0 0 0 0 0 1 1 1 1 2 2 3 2 2 1 1 1 1 1 1 1 1 1 1 1 1
1 2 2 1 1 1 1 1 1 1 1 1 1 0 0 0 0 1 1 1 0 0 0 1 1 1 2 3 3 2 2 1 1 1 1 1 1 1 1 1 1 1 0
1 1 1 1 1 1 1 1 1 1 1 1 1 1 1 1 1 1 1 1 0 0 0 1 1 1 2 2 2 2 1 1 1 1 1 1 2 2 1 1 1 1 1
1 1 1 1 1 1 1 1 1 1 1 1 1 1 1 1 1 1 1 1 0 0 0 1 1 1 1 1 1 1 1 1 1 1 1 1 2 2 1 1 1 1 1
2 2 2 2 1 1 1 1 1 1 1 1 1 1 1 1 1 1 1 1 1 1 1 1 1 1 1 1 1 1 1 1 1 1 1 2 2 2 2 1 1 1 1
1 2 3 3 2 1 1 1 1 1 1 1 1 1 1 1 1 1 1 1 1 1 1 1 1 1 0 0 0 0 0 0 1 1 1 1 2 2 2 1 1 1 1
1 2 3 4 3 1 1 1 1 1 1 1 1 1 1 0 1 1 1 1 1 1 1 1 1 1 0 1 1 0 0 0 1 1 1 1 2 2 2 1 1 1 1
1 1 3 4 3 2 1 1 1 1 1 1 1 1 1 1 1 1 1 1 1 1 1 1 1 1 1 1 1 1 1 1 1 1 1 1 1 1 2 1 1 1 1
1 1 3 5 4 3 2 1 1 1 1 1 1 1 1 1 1 1 1 1 1 1 1 1 1 1 1 1 1 1 1 1 1 1 1 1 1 1 1 1 1 1 1
2 2 2 4 5 4 3 2 1 1 1 1 1 1 1 1 1 1 1 1 1 1 1 1 1 1 1 1 1 1 1 1 1 1 1 2 2 1 1 1 1 1 1
2 2 2 3 4 4 3 2 2 1 2 2 2 2 1 1 1 1 1 1 1 1 1 1 1 1 1 1 1 1 1 1 1 1 2 2 1 1 1 1 1 1 1
3 3 2 2 3 3 3 3 2 2 2 2 2 3 2 2 1 1 1 1 1 1 1 1 1 1 1 1 1 1 1 1 1 1 1 1 1 1 1 1 1 1 1
4 3 3 3 2 3 3 3 3 2 2 2 3 4 4 3 2 1 1 1 1 1 1 1 1 1 1 1 1 1 1 1 1 1 1 1 2 2 1 1 1 1 1
4 3 3 2 2 2 3 3 3 2 2 3 4 5 4 3 2 2 1 1 1 1 1 1 1 1 1 1 1 1 1 1 1 1 1 1 2 2 1 2 2 2 1
4 3 3 2 2 2 3 3 3 3 3 3 4 5 5 4 3 2 2 2 1 1 1 1 1 1 1 1 1 1 1 1 1 1 1 2 2 2 2 2 2 2 2
4 3 3 3 3 3 3 2 3 4 4 4 4 5 4 4 3 3 2 2 2 1 1 2 2 1 1 1 1 1 1 1 1 1 1 1 2 2 2 2 2 2 2
3 3 3 4 5 4 3 2 2 3 4 4 5 5 5 4 4 4 3 3 2 2 2 2 2 1 1 1 1 1 1 1 1 1 1 1 2 2 2 2 2 2 2
4 4 5 7 7 6 4 3 3 3 4 5 5 5 5 5 5 5 4 4 3 2 2 2 2 1 1 1 1 1 1 1 1 1 1 1 1 1 1 2 2 2 2
4 5 6 8 9 7 5 4 3 4 5 5 6 6 6 6 6 6 5 4 3 2 2 2 1 1 1 1 1 1 1 1 1 1 1 2 1 1 1 1 1 2 2
Wind_Speed
10 11 11 11 11 12 12 13 13 13 13 13 14 14 14 14 13 14 14 14 13 13 13 13 13 13 13 13 14 15 15 15 14 15 15 15 15 13 12 12 12 11 14
12 12 12 12 12 12 12 13 13 13 13 12 12 13 13 13 13 13 12 13 13 13 13 12 12 12 12 13 13 13 14 13 13 14 15 14 14 12 10 10 12 10 14
12 12 12 11 12 12 12 12 12 12 12 12 12 12 12 12 12 12 12 12 12 12 12 11 11 12 12 12 12 12 12 12 12 13 13 9 10 12 12 14 15 14 13
12 12 12 12 12 11 11 11 11 11 11 11 11 11 11 11 11 12 12 11 11 11 11 11 11 11 11 10 11 10 10 11 11 11 7 7 8 11 12 14 14 13 12
14 13 12 12 12 11 11 11 11 11 11 11 11 11 11 11 11 11 11 10 10 10 11 11 10 10 10 10 10 9 9 8 8 7 6 8 7 11 13 13 13 12 12
14 14 13 13 12 11 11 11 10 10 11 11 11 11 11 11 11 11 10 9 9 10 10 10 9 9 9 9 9 8 7 7 6 4 6 8 7 11 13 12 12 12 11
13 14 12 12 12 11 10 10 10 10 10 10 10 10 11 10 10 10 10 9 9 9 9 9 8 7 7 8 8 7 6 6 4 3 7 8 8 12 12 12 11 11 11
13 13 12 12 11 11 10 10 10 10 10 10 10 10 10 10 10 9 9 9 8 8 8 8 7 6 7 7 7 6 6 5 4 6 8 8 11 12 12 11 11 10 10
11 11 10 10 9 10 10 10 10 9 9 9 9 9 9 9 9 9 8 8 8 8 8 7 6 7 7 6 6 5 4 5 3 3 8 8 12 13 12 11 11 10 10
8 9 8 10 9 8 8 9 9 9 9 8 8 8 8 9 9 9 8 7 7 7 7 7 6 6 6 5 5 4 4 4 3 3 5 8 15 14 13 12 11 10 10
7 6 6 7 7 7 7 9 9 9 8 8 7 8 7 5 7 6 7 8 7 7 7 7 6 6 5 5 5 5 4 2 2 2 5 12 15 14 13 12 11 10 10
6 6 4 5 5 4 5 6 5 6 7 5 4 4 3 3 3 5 7 8 8 8 8 8 7 6 5 4 6 6 3 3 2 3 6 14 14 13 12 11 11 11 10
6 5 5 5 4 4 3 4 3 3 4 4 4 3 2 2 3 4 3 5 5 7 5 6 6 4 4 3 3 3 3 2 1 3 7 14 13 13 12 11 11 10 10
7 6 6 6 5 4 4 3 4 3 3 3 4 3 2 1 1 3 2 3 3 3 4 4 3 4 3 3 2 2 2 1 2 3 6 13 12 12 11 11 10 9 9
7 7 7 6 4 3 3 1 3 3 3 4 3 2 2 1 1 2 1 1 2 2 3 2 2 2 2 1 2 2 2 1 2 3 5 11 12 11 11 11 11 10 10
7 6 6 6 5 3 1 1 1 3 3 3 3 3 2 2 2 1 1 1 1 1 2 2 2 2 2 2 2 2 2 2 1 3 5 6 9 10 11 11 11 11 11
7 6 5 6 5 3 1 0 2 2 3 3 3 3 2 2 1 1 1 1 1 1 2 2 2 1 2 2 2 1 2 2 2 2 4 4 5 8 10 11 11 11 11
7 5 3 4 6 4 2 0 1 1 2 2 2 2 2 3 1 1 1 1 1 1 1 1 1 1 1 1 1 1 1 2 3 3 3 3 4 4 7 10 10 10 10
7 6 4 3 5 4 3 1 1 1 1 1 2 2 2 2 1 1 1 0 1 1 0 1 1 1 1 1 2 2 2 2 2 4 4 4 4 4 4 8 10 10 10
8 6 5 4 4 3 3 1 1 1 1 1 2 2 2 1 1 1 2 0 0 1 1 0 1 1 1 1 2 2 2 2 2 2 3 3 3 5 5 5 6 7 9
8 7 5 5 4 2 2 1 1 1 1 1 2 3 3 1 1 1 1 1 0 1 0 1 1 1 1 1 1 1 1 2 2 2 2 2 3 3 4 5 4 4 5
8 7 6 5 5 4 3 2 1 2 2 2 1 2 2 2 1 2 1 0 1 1 0 0 1 1 1 1 1 0 0 0 1 2 2 3 3 3 3 5 4 4 3
9 8 6 5 5 4 4 3 2 1 1 2 2 2 1 2 2 1 2 0 0 1 1 1 0 1 1 1 1 1 1 1 1 0 2 2 3 2 3 3 5 4 4
10 9 7 6 5 4 3 2 3 2 2 2 2 2 2 1 2 2 2 1 1 0 1 2 1 1 1 2 1 1 1 1 1 1 1 1 2 2 2 2 2 3 3
10 10 8 7 5 4 3 2 2 1 1 1 2 2 2 2 2 2 2 1 1 1 1 1 0 1 1 2 1 1 1 1 2 1 1 1 1 1 1 2 1 2 3
9 9 9 7 5 4 3 3 2 1 0 0 1 2 2 2 2 2 3 2 1 1 1 1 1 1 1 1 2 1 1 1 2 2 2 2 1 1 1 1 1 1 2
Wind_Direction
89 89 85 81 82 83 84 87 90 92 90 92 94 93 93 93 94 95 97 100 102 103 104 105 106 106 108 111 115 115 114 111 112 112 110 110 112 113 116 123 121 109 113
99 98 92 85 85 87 89 89 88 90 92 95 97 98 99 98 97 97 101 102 103 103 103 103 106 106 107 111 115 117 118 119 120 120 119 115 113 110 112 117 110 115 116
104 108 99 90 89 91 92 92 92 93 95 98 98 99 100 100 100 101 102 100 101 103 105 106 108 109 112 116 120 123 126 128 133 134 132 122 116 114 110 108 111 118 119
104 101 97 96 92 93 94 95 94 95 98 98 99 101 100 101 101 103 104 104 105 107 108 110 111 113 117 122 126 132 137 144 149 151 143 126 122 121 120 117 120 124 124
98 101 102 102 96 95 96 97 96 94 96 99 99 100 101 102 102 101 103 105 109 110 110 112 116 119 124 128 135 143 153 157 163 171 128 118 116 129 127 126 127 131 129
107 106 108 109 103 101 100 99 99 98 98 100 101 100 100 102 103 103 104 104 108 109 109 111 115 122 130 136 143 152 165 176 187 170 126 122 125 134 133 131 132 134 130
104 109 114 116 114 110 108 105 104 104 104 105 106 106 107 107 108 108 109 109 107 111 110 111 114 125 137 146 155 162 177 193 208 157 126 123 132 140 139 138 140 139 137
105 108 115 118 120 119 116 112 110 113 115 115 114 115 115 116 116 115 113 112 109 113 115 115 116 123 138 155 164 179 199 224 194 152 127 128 142 145 145 144 144 146 147
107 115 125 128 127 127 124 123 123 125 127 127 125 126 127 128 127 126 123 122 120 120 123 121 120 125 140 152 167 189 214 232 260 146 137 137 149 151 151 153 155 156 156
98 111 130 134 139 142 136 133 134 139 144 144 144 143 146 145 142 142 136 132 132 130 131 133 130 127 141 154 173 194 226 255 233 155 127 144 153 156 158 162 164 164 166
96 101 110 121 138 144 140 140 152 151 149 151 156 161 163 163 152 153 135 142 146 147 147 151 150 151 158 175 189 206 231 238 193 123 117 142 153 157 162 168 171 174 177
112 114 112 111 110 120 122 135 158 158 152 163 150 169 187 164 142 134 143 156 160 162 165 170 171 180 189 190 194 205 222 221 172 131 133 149 156 161 166 173 177 182 185
118 111 114 100 96 90 97 134 139 137 144 151 141 162 154 136 141 138 149 161 170 175 182 174 183 206 202 197 186 185 203 219 127 127 140 150 158 165 170 177 186 189 189
115 111 101 87 71 64 67 90 119 123 138 130 143 158 134 145 147 140 153 170 176 178 173 174 186 193 201 189 173 171 169 156 105 106 145 156 163 169 175 179 182 183 181
112 105 98 97 84 67 63 39 114 119 129 130 139 127 123 129 116 117 144 166 178 160 160 166 174 175 165 183 187 160 122 104 127 130 140 162 166 173 180 183 186 189 191
114 113 115 115 114 104 97 54 100 123 131 128 130 119 125 114 103 121 145 150 156 138 154 160 179 182 179 178 187 148 137 154 139 128 139 159 173 180 185 191 193 195 198
124 118 121 133 128 127 127 173 109 119 120 116 115 120 120 118 122 149 137 158 156 165 166 167 177 174 187 181 165 169 160 161 146 139 146 156 177 188 191 193 196 198 199
133 131 147 140 134 143 139 77 78 85 105 107 114 116 112 119 161 149 134 154 157 147 158 171 182 164 155 148 162 197 163 170 168 166 172 169 173 182 190 194 197 198 200
139 140 143 118 131 147 146 145 136 99 88 110 112 114 125 136 143 127 96 61 198 138 161 212 126 136 162 171 193 192 193 191 180 192 181 186 181 172 172 185 192 195 200
140 142 144 141 140 148 139 158 170 115 133 128 120 121 132 153 142 120 137 197 234 143 156 114 120 142 204 217 241 209 199 189 188 200 197 187 178 177 172 174 182 194 200
144 146 150 152 149 151 141 179 168 154 157 139 143 131 141 154 134 131 108 171 165 123 145 141 139 201 219 202 218 244 233 210 194 198 203 188 186 183 164 161 172 178 191
152 153 155 161 161 166 162 183 184 172 177 147 126 135 151 148 169 161 131 217 115 152 143 283 183 227 257 198 166 191 252 312 263 212 201 205 188 176 165 169 175 176 181
160 164 163 157 163 169 177 183 182 163 190 145 153 153 164 172 172 117 139 175 240 205 172 250 242 236 261 269 192 179 190 203 225 271 237 197 182 181 178 177 182 179 183
166 165 156 157 160 168 184 181 194 178 173 171 159 145 173 197 187 169 162 166 245 266 182 250 181 266 250 268 258 211 206 157 185 229 272 230 191 191 188 192 177 171 174
168 163 157 155 161 169 181 180 209 183 178 149 131 149 183 196 202 189 163 159 215 251 221 275 278 265 280 275 279 266 244 215 216 199 220 241 253 187 163 161 184 162 157
162 157 153 154 158 166 184 175 190 166 175 193 166 172 199 184 193 182 154 157 195 212 208 240 244 251 254 279 295 297 277 242 223 210 219 216 218 233 167 146 179 161 143